Date,TemperatureHighF,TemperatureAvgF,TemperatureLowF,DewpointHighF,DewpointAvgF,DewpointLowF,HumidityHigh,HumidityAvg,HumidityLow,PressureMaxIn,PressureMinIn,WindSpeedMaxMPH,WindSpeedAvgMPH,GustSpeedMaxMPH,PrecipitationSumIn
2014-1-1,7.0,-0.7,-17.0,-7.0,-11.3,-25.0,70,60,48,0.00,40.00,8,4,12,0.00
2014-1-2,10.0,1.1,-10.0,-8.0,-9.7,-15.0,76,60,42,0.00,40.00,9,5,20,0.00
2014-1-3,17.0,2.9,-19.0,10.0,-5.6,-27.0,76,67,57,0.00,40.00,17,10,29,0.00
2014-1-4,28.0,18.3,5.0,27.0,9.3,-99.9,94,71,59,0.00,40.00,15,9,25,0.00
2014-1-5,5.0,-5.0,-14.0,-3.0,-16.0,-25.0,70,58,47,0.00,40.00,12,7,17,0.00
2014-1-6,-14.0,-19.0,-26.0,-25.0,-31.5,-38.0,57,51,43,0.00,40.00,15,11,23,0.00
2014-1-7,-1.0,-11.9,-21.0,-15.0,-22.8,-30.0,67,58,46,0.00,40.00,10,6,19,0.00
2014-1-8,3.0,-6.4,-17.0,-12.0,-16.7,-24.0,75,61,47,0.00,40.00,9,4,15,0.00
2014-1-9,16.0,0.2,-24.0,14.0,-7.7,-32.0,90,69,53,0.00,40.00,9,4,13,0.00
2014-1-10,29.0,24.3,16.0,29.0,23.3,14.0,99,95,90,0.00,40.00,10,5,17,0.05
2014-1-11,30.0,27.6,26.0,28.0,24.4,-99.9,99,91,85,0.00,40.00,12,8,20,0.04
2014-1-12,41.0,31.3,23.0,30.0,25.6,22.0,96,80,59,0.00,40.00,17,8,29,0.13
2014-1-13,35.0,29.8,18.0,30.0,23.4,14.0,89,77,57,0.00,40.00,13,6,25,0.01
2014-1-14,24.0,20.0,14.0,21.0,17.1,9.0,94,88,79,0.00,40.00,14,9,29,0.01
2014-1-15,14.0,9.5,7.0,9.0,2.5,-2.0,82,73,60,0.00,40.00,15,8,21,0.00
2014-1-16,27.0,18.1,8.0,25.0,13.1,2.0,93,80,69,0.00,40.00,16,10,24,0.00
2014-1-17,20.0,11.9,-3.0,11.0,5.4,-8.0,85,75,65,0.00,40.00,12,8,18,0.00
2014-1-18,18.0,7.0,-7.0,8.0,-0.5,-99.9,85,75,64,0.00,40.00,7,3,13,0.00
2014-1-19,36.0,24.1,13.0,26.0,18.2,8.0,92,79,61,0.00,40.00,10,6,20,0.07
2014-1-20,25.0,12.6,-1.0,22.0,3.6,-12.0,87,67,47,0.00,40.00,12,7,22,0.03
2014-1-21,1.0,-7.4,-16.0,-12.0,-17.0,-22.0,72,62,47,0.00,40.00,8,4,15,0.00
2014-1-22,6.0,0.3,-5.0,-3.0,-8.3,-15.0,78,66,51,0.00,40.00,15,9,25,0.00
2014-1-23,-1.0,-6.4,-15.0,-13.0,-16.6,-24.0,70,61,49,0.00,40.00,14,8,25,0.00
2014-1-24,27.0,10.0,-15.0,23.0,2.6,-23.0,92,72,58,0.00,40.00,15,9,25,0.00
2014-1-25,27.0,7.1,-3.0,20.0,-8.0,-99.9,78,52,41,0.00,40.00,19,13,31,0.00
2014-1-26,11.0,4.1,-1.0,5.0,-3.5,-13.0,78,70,54,0.00,40.00,18,9,32,0.00
2014-1-27,-1.0,-10.8,-16.0,-10.0,-23.5,-29.0,67,52,42,0.00,40.00,16,11,26,0.00
2014-1-28,-1.0,-10.2,-22.0,-18.0,-22.1,-30.0,65,55,42,0.00,40.00,11,7,20,0.00
2014-1-29,21.0,5.6,-9.0,9.0,-8.0,-18.0,65,54,37,0.00,40.00,16,9,23,0.00
2014-1-30,27.0,21.4,5.0,24.0,13.6,-4.0,92,72,54,0.00,40.00,15,8,22,0.00
2014-1-31,6.0,-3.0,-14.0,-4.0,-13.3,-20.0,76,61,46,0.00,40.00,8,5,13,0.00
2014-2-1,17.0,5.5,-13.0,1.0,-6.7,-99.9,83,62,44,0.00,40.00,6,3,9,0.00
2014-2-2,10.0,1.1,-7.0,-4.0,-7.6,-13.0,84,67,45,0.00,40.00,9,4,14,0.00
2014-2-3,23.0,13.4,-18.0,6.0,1.4,-26.0,84,59,46,0.00,40.00,12,6,17,0.01
2014-2-4,18.0,8.8,-7.0,2.0,-1.5,-12.0,84,64,47,0.00,40.00,5,2,7,0.01
2014-2-5,13.0,7.4,-2.0,2.0,-1.2,-8.0,80,67,56,0.00,40.00,10,7,16,0.01
2014-2-6,5.0,-4.3,-14.0,-8.0,-13.6,-20.0,76,64,47,0.00,40.00,11,6,20,0.00
2014-2-7,13.0,0.9,-8.0,-9.0,-11.1,-14.0,75,58,36,0.00,40.00,12,7,23,0.00
2014-2-8,14.0,5.2,-16.0,4.0,-2.5,-25.0,84,71,54,0.00,40.00,6,2,13,0.00
2014-2-9,11.0,5.6,-6.0,4.0,-4.0,-16.0,84,65,46,0.00,40.00,12,6,20,0.00
2014-2-10,4.0,-4.4,-12.0,-12.0,-15.9,-20.0,71,58,45,0.00,40.00,10,6,16,0.00
2014-2-11,13.0,-0.4,-24.0,-6.0,-13.6,-32.0,73,54,40,0.00,40.00,10,5,14,0.00
2014-2-12,21.0,9.9,2.0,9.0,2.3,-7.0,87,72,58,0.00,40.00,16,6,23,0.02
2014-2-13,24.0,16.0,4.0,22.0,12.4,0.0,92,85,75,0.00,40.00,15,8,23,0.02
2014-2-14,19.0,11.5,0.0,6.0,1.8,-5.0,77,65,54,0.00,40.00,12,9,20,0.00
2014-2-15,22.0,13.2,-8.0,14.0,1.5,-99.9,86,64,43,0.00,40.00,8,4,13,0.00
2014-2-16,25.0,14.0,3.0,10.0,4.9,-1.0,88,69,43,0.00,40.00,9,4,15,0.03
2014-2-17,24.0,18.6,13.0,21.0,15.3,6.0,93,87,73,0.00,40.00,12,7,21,0.02
2014-2-18,36.0,26.6,19.0,26.0,22.2,17.0,95,84,65,0.00,40.00,12,5,21,0.13
2014-2-19,45.0,31.2,15.0,26.0,20.4,13.0,93,67,46,0.00,40.00,9,4,17,0.01
2014-2-20,36.0,33.2,30.0,33.0,27.0,20.0,99,79,62,0.00,40.00,19,10,34,0.42
2014-2-21,32.0,17.7,13.0,32.0,13.9,7.0,100,85,76,0.00,40.00,17,14,34,0.25
2014-2-22,20.0,12.5,7.0,7.0,1.8,-99.9,78,65,50,0.00,40.00,13,11,25,0.00
2014-2-23,19.0,9.3,1.0,2.0,-1.4,-6.0,73,62,47,0.00,40.00,14,10,24,0.00
2014-2-24,13.0,6.5,1.0,-1.0,-3.7,-6.0,73,63,49,0.00,40.00,14,10,22,0.00
2014-2-25,6.0,2.0,-4.0,-3.0,-9.2,-15.0,81,59,45,0.00,40.00,14,10,24,0.00
2014-2-26,12.0,0.4,-13.0,4.0,-12.7,-23.0,80,55,28,0.00,40.00,21,10,33,0.00
2014-2-27,4.0,-5.2,-15.0,-7.0,-25.9,-99.9,60,43,27,0.00,40.00,17,10,32,0.00
2014-2-28,10.0,3.3,-21.0,6.0,-7.3,-30.0,84,63,36,0.00,40.00,11,6,17,0.00
2014-3-1,9.0,3.8,-1.0,4.0,-8.4,-99.9,79,59,44,0.00,40.00,11,8,19,0.00
2014-3-2,1.0,-5.2,-12.0,-18.0,-24.3,-29.0,51,38,30,0.00,40.00,12,7,18,0.00
2014-3-3,13.0,-0.9,-23.0,4.0,-15.3,-30.0,83,52,32,0.00,40.00,8,3,13,0.00
2014-3-4,19.0,11.1,5.0,5.0,2.6,-2.0,83,69,51,0.00,40.00,5,2,10,0.00
2014-3-5,23.0,13.1,4.0,4.0,-1.5,-9.0,77,53,31,0.00,40.00,10,6,16,0.02
2014-3-6,28.0,13.7,-9.0,11.0,3.1,-14.0,79,63,45,0.00,40.00,12,7,19,0.01
2014-3-7,35.0,27.1,17.0,27.0,20.1,11.0,83,75,68,0.00,40.00,12,6,17,0.01
2014-3-8,29.0,20.6,11.0,21.0,8.6,-99.9,82,63,47,0.00,40.00,10,6,20,0.01
2014-3-9,46.0,26.9,6.0,30.0,16.6,2.0,88,67,43,0.00,40.00,17,8,28,0.00
2014-3-10,54.0,43.0,30.0,34.0,31.1,29.0,97,65,45,0.00,40.00,10,5,17,0.00
2014-3-11,43.0,39.8,32.0,31.0,27.7,21.0,76,62,47,0.00,40.00,12,5,21,0.00
2014-3-12,32.0,23.9,13.0,22.0,6.4,-4.0,79,49,24,0.00,40.00,15,7,26,0.00
2014-3-13,42.0,24.9,1.0,29.0,14.2,-5.0,82,64,52,0.00,40.00,14,7,19,0.00
2014-3-14,43.0,37.7,32.0,33.0,29.6,23.0,87,73,58,0.00,40.00,16,10,26,0.00
2014-3-15,32.0,27.0,16.0,23.0,11.3,-99.9,72,54,41,0.00,40.00,16,8,25,0.00
2014-3-16,25.0,12.5,4.0,4.0,-3.4,-7.0,62,49,29,0.00,40.00,9,6,21,0.00
2014-3-17,28.0,21.1,13.0,21.0,9.1,-99.9,85,63,53,0.00,40.00,13,9,21,0.00
2014-3-18,40.0,31.1,22.0,31.0,24.2,18.0,92,76,59,0.00,40.00,11,8,21,0.00
2014-3-19,36.0,32.6,31.0,32.0,28.8,22.0,98,86,70,0.00,40.00,15,8,25,0.13
2014-3-20,39.0,31.8,25.0,22.0,18.5,-99.9,88,62,49,0.00,40.00,10,6,19,0.02
2014-3-21,43.0,32.0,22.0,33.0,22.4,-99.9,92,73,49,0.00,40.00,15,6,24,0.02
2014-3-22,35.0,24.2,13.0,30.0,12.1,-99.9,87,63,44,0.00,40.00,15,11,24,0.02
2014-3-23,20.0,12.3,2.0,3.0,0.5,-4.0,74,59,46,0.00,40.00,11,7,19,0.01
2014-3-24,29.0,24.1,16.0,22.0,13.8,8.0,88,66,46,0.00,40.00,11,7,19,0.00
2014-3-25,18.0,13.3,8.0,12.0,0.2,-5.0,83,56,41,0.00,40.00,17,9,26,0.00
2014-3-26,33.0,17.7,-1.0,26.0,6.1,-6.0,88,62,42,0.00,40.00,15,7,24,0.00
2014-3-27,36.0,33.6,29.0,35.0,30.5,23.0,100,89,71,0.00,40.00,14,7,22,0.26
2014-3-28,41.0,33.3,28.0,34.0,23.3,20.0,100,68,46,0.00,40.00,13,7,27,0.13
2014-3-29,44.0,33.3,28.0,25.0,19.8,-99.9,85,63,40,0.00,40.00,8,3,11,0.00
2014-3-30,57.0,40.8,29.0,33.0,27.2,22.0,77,60,38,0.00,40.00,16,8,28,0.00
2014-3-31,59.0,47.6,40.0,39.0,36.0,33.0,83,65,48,0.00,40.00,14,9,26,0.00
2014-4-1,51.0,32.0,24.0,38.0,23.2,15.0,83,70,60,0.00,40.00,19,11,31,0.00
2014-4-2,45.0,32.4,19.0,21.0,16.9,14.0,82,56,32,0.00,40.00,5,4,11,0.00
2014-4-3,37.0,32.0,29.0,29.0,21.4,15.0,91,66,52,0.00,40.00,14,10,24,0.03
2014-4-4,32.0,30.9,29.0,31.0,29.0,26.0,98,93,84,0.00,40.00,12,5,30,0.23
2014-4-5,49.0,33.3,17.0,30.0,22.9,-99.9,95,72,41,0.00,40.00,8,3,17,0.31
2014-4-6,63.0,45.9,33.0,39.0,32.6,25.0,82,61,38,0.00,40.00,15,8,24,0.03
2014-4-7,54.0,44.2,36.0,44.0,39.5,34.0,100,85,65,0.00,40.00,7,3,14,0.04
2014-4-8,55.0,41.6,31.0,37.0,30.8,24.0,100,70,35,0.00,40.00,14,6,23,0.04
2014-4-9,63.0,44.9,26.0,32.0,27.5,24.0,97,57,27,0.00,40.00,16,8,25,0.00
2014-4-10,60.0,52.6,38.0,35.0,24.6,14.0,61,36,19,0.00,40.00,18,11,31,0.00
2014-4-11,58.0,42.5,30.0,43.0,29.7,18.0,84,62,38,0.00,40.00,9,2,18,0.01
2014-4-12,46.0,41.1,38.0,40.0,34.8,-99.9,99,84,51,0.00,40.00,12,8,22,0.43
2014-4-13,51.0,42.1,33.0,44.0,39.8,32.0,100,93,71,0.00,40.00,14,7,27,0.72
2014-4-14,34.0,29.5,27.0,33.0,26.3,17.0,100,89,54,0.00,40.00,15,12,28,0.87
2014-4-15,34.0,24.0,12.0,14.0,10.5,8.0,90,58,38,0.00,40.00,12,5,18,0.04
2014-4-16,43.0,32.1,23.0,30.0,23.0,13.0,90,69,54,0.00,40.00,14,9,30,0.00
2014-4-17,45.0,38.2,33.0,37.0,32.2,25.0,98,79,60,0.00,40.00,13,8,24,0.10
2014-4-18,52.0,38.1,26.0,28.0,23.5,19.0,94,60,28,0.00,40.00,8,4,16,0.03
2014-4-19,64.0,46.9,32.0,38.0,27.7,-99.9,77,51,32,0.00,40.00,17,11,27,0.00
2014-4-20,61.0,55.1,49.0,54.0,47.3,37.0,95,76,49,0.00,40.00,11,6,19,0.20
2014-4-21,72.0,58.0,47.0,56.0,46.9,30.0,100,73,23,0.00,40.00,18,7,30,0.01
2014-4-22,53.0,44.0,35.0,31.0,25.8,22.0,70,51,31,0.00,40.00,13,9,27,0.00
2014-4-23,52.0,41.7,28.0,31.0,25.0,19.0,99,57,29,0.00,40.00,9,5,17,0.00
2014-4-24,44.0,39.5,36.0,40.0,32.6,17.0,98,79,37,0.00,40.00,15,10,28,0.80
2014-4-25,57.0,46.1,39.0,44.0,37.8,30.0,100,75,45,0.00,40.00,19,8,35,0.17
2014-4-26,55.0,41.1,31.0,31.0,28.7,27.0,86,64,35,0.00,40.00,9,6,17,0.01
2014-4-28,42.0,41.5,40.0,35.0,33.1,31.0,82,72,66,0.00,40.00,20,18,33,0.00
2014-4-29,42.0,39.9,37.0,41.0,37.5,35.0,98,92,82,0.00,40.00,20,10,36,0.59
2014-4-30,50.0,44.6,41.0,49.0,43.9,40.0,100,97,88,0.00,40.00,8,4,15,0.39
2014-5-1,48.0,43.5,40.0,43.0,41.3,40.0,100,92,74,0.00,40.00,11,6,18,0.07
2014-5-2,51.0,45.1,41.0,45.0,40.8,37.0,100,86,61,0.00,40.00,8,5,18,0.06
2014-5-3,59.0,47.3,41.0,43.0,34.6,-99.9,100,68,34,0.00,40.00,15,8,25,0.07
2014-5-4,59.0,48.3,36.0,33.0,26.3,22.0,70,45,24,0.00,40.00,10,6,19,0.01
2014-5-5,59.0,48.1,41.0,37.0,33.5,26.0,76,58,40,0.00,40.00,10,7,18,0.00
2014-5-6,60.0,49.8,38.0,36.0,33.6,30.0,88,57,37,0.00,40.00,14,9,24,0.00
2014-5-13,51.0,47.7,44.0,40.0,38.8,38.0,80,71,65,0.00,40.00,12,6,21,0.09
2014-5-14,58.0,49.3,39.0,38.0,32.1,26.0,88,56,30,0.00,40.00,11,7,21,0.01
2014-5-15,54.0,46.6,40.0,34.0,27.6,24.0,61,48,36,0.00,40.00,12,8,22,0.00
2014-5-16,50.0,42.0,30.0,32.0,27.8,23.0,93,59,38,0.00,40.00,10,5,18,0.00
2014-5-17,62.0,47.2,30.0,34.0,27.6,-99.9,98,55,25,0.00,40.00,12,5,25,0.00
2014-5-18,73.0,57.6,43.0,39.0,34.3,30.0,77,46,21,0.00,40.00,10,6,20,0.00
2014-5-19,64.0,49.3,44.0,50.0,36.5,-99.9,99,71,39,0.00,40.00,15,8,25,1.25
2014-5-20,72.0,59.9,49.0,60.0,51.8,-99.9,100,79,62,0.00,40.00,11,4,20,0.98
2014-5-21,70.0,61.5,49.0,59.0,51.0,45.0,100,72,47,0.00,40.00,14,7,25,0.01
2014-5-22,68.0,55.9,45.0,48.0,42.3,-99.9,97,65,40,0.00,40.00,12,6,19,0.01
2014-5-23,74.0,58.3,39.0,47.0,43.1,39.0,100,63,33,0.00,40.00,6,3,15,0.00
2014-5-24,79.0,63.3,45.0,51.0,44.4,-99.9,99,58,27,0.00,40.00,8,4,21,0.00
2014-5-25,82.0,66.3,45.0,54.0,48.2,44.0,99,58,26,0.00,40.00,11,4,18,0.00
2014-5-26,83.0,72.0,62.0,66.0,61.6,54.0,90,71,50,0.00,40.00,10,5,17,0.00
2014-5-27,76.0,68.6,64.0,68.0,64.3,56.0,100,87,70,0.00,40.00,9,5,15,0.18
2014-5-28,77.0,65.3,58.0,56.0,45.3,29.0,73,50,18,0.00,40.00,6,5,14,0.04
2014-5-29,83.0,65.6,46.0,54.0,48.6,42.0,100,61,24,0.00,40.00,6,3,13,0.00
2014-5-30,84.0,68.5,51.0,59.0,53.3,51.0,100,64,32,0.00,40.00,9,4,15,0.00
2014-5-31,86.0,71.1,56.0,57.0,51.2,-99.9,86,54,31,0.00,40.00,12,6,19,0.00
2014-6-1,81.0,70.2,64.0,69.0,65.1,53.0,100,85,50,0.00,40.00,15,8,29,0.38
2014-6-2,78.0,71.8,66.0,66.0,62.4,56.0,95,73,56,0.00,40.00,13,9,25,0.86
2014-6-3,75.0,65.2,56.0,56.0,51.7,49.0,93,63,44,0.00,40.00,14,10,28,0.01
2014-6-4,76.0,64.8,52.0,56.0,53.2,51.0,100,70,44,0.00,40.00,9,4,18,0.00
2014-6-5,79.0,65.7,52.0,61.0,55.0,51.0,100,73,40,0.00,40.00,9,4,19,0.00
2014-6-6,81.0,69.0,59.0,62.0,57.8,54.0,98,69,45,0.00,40.00,9,4,17,0.00
2014-6-7,77.0,61.8,55.0,62.0,55.7,-99.9,100,85,60,0.00,40.00,12,5,23,0.14
2014-6-8,74.0,63.0,52.0,54.0,47.2,42.0,92,62,32,0.00,40.00,8,5,24,0.05
2014-6-9,75.0,63.6,54.0,50.0,46.4,43.0,87,56,33,0.00,40.00,5,3,11,0.00
2014-6-10,75.0,63.2,49.0,51.0,47.7,42.0,98,62,31,0.00,40.00,7,4,16,0.00
2014-6-11,80.0,67.0,53.0,54.0,50.5,46.0,87,58,37,0.00,40.00,9,4,17,0.00
2014-6-12,68.0,60.9,54.0,59.0,51.1,43.0,97,72,50,0.00,40.00,15,9,30,0.00
2014-6-13,71.0,58.5,47.0,47.0,41.2,37.0,87,56,30,0.00,40.00,16,9,34,0.00
2014-6-14,75.0,59.5,46.0,54.0,45.8,-99.9,98,67,38,0.00,40.00,19,7,34,0.07
2014-6-15,80.0,65.8,53.0,67.0,55.2,47.0,95,70,50,0.00,40.00,19,10,35,0.46
2014-6-16,84.0,69.9,55.0,63.0,57.1,53.0,100,68,37,0.00,40.00,13,5,22,0.05
2014-6-17,86.0,72.1,62.0,70.0,64.0,59.0,100,78,51,0.00,40.00,13,5,30,0.34
2014-6-18,76.0,69.2,64.0,67.0,64.8,62.0,98,87,67,0.00,40.00,14,7,31,0.74
2014-6-19,75.0,66.3,62.0,65.0,61.8,59.0,99,86,67,0.00,40.00,14,8,26,0.05
2014-6-20,79.0,67.3,59.0,68.0,62.6,58.0,100,87,61,0.00,40.00,10,4,17,0.06
2014-6-21,80.0,66.7,60.0,70.0,61.8,-99.9,100,88,63,0.00,40.00,7,5,15,0.01
2014-6-22,77.0,69.7,63.0,66.0,64.7,63.0,100,85,66,0.00,40.00,9,4,14,0.00
2014-6-23,80.0,70.3,64.0,68.0,65.2,64.0,100,85,62,0.00,40.00,7,4,13,0.00
2014-6-24,83.0,71.0,63.0,66.0,62.7,60.0,100,78,49,0.00,40.00,11,4,21,0.00
2014-6-25,76.0,67.9,61.0,63.0,60.6,58.0,99,79,56,0.00,40.00,10,4,17,0.00
2014-6-26,77.0,67.0,58.0,62.0,59.4,56.0,95,78,58,0.00,40.00,8,5,14,0.00
2014-6-27,83.0,70.6,60.0,70.0,64.9,58.0,96,83,61,0.00,40.00,15,7,26,0.31
2014-6-28,84.0,75.2,69.0,72.0,66.3,-99.9,96,78,63,0.00,40.00,14,10,26,0.15
2014-6-29,83.0,72.1,65.0,69.0,65.4,61.0,100,81,51,0.00,40.00,13,9,26,0.19
2014-6-30,79.0,69.8,64.0,71.0,66.6,62.0,100,90,69,0.00,40.00,15,6,29,0.08
2014-7-1,75.0,65.7,60.0,65.0,61.0,58.0,98,85,64,0.00,40.00,10,7,27,0.20
2014-7-2,72.0,61.2,55.0,61.0,52.5,42.0,99,75,44,0.00,40.00,9,7,17,0.19
2014-7-3,75.0,59.3,40.0,57.0,49.1,40.0,100,74,41,0.00,40.00,10,3,20,0.00
2014-7-4,78.0,63.8,42.0,58.0,48.8,41.0,100,66,28,0.00,40.00,8,3,15,0.00
2014-7-5,79.0,65.3,54.0,62.0,53.6,-99.9,95,71,51,0.00,40.00,15,9,25,0.00
2014-7-6,80.0,69.3,63.0,73.0,66.4,61.0,100,91,78,0.00,40.00,12,7,19,0.00
2014-7-7,82.0,69.0,57.0,67.0,62.1,56.0,99,81,51,0.00,40.00,10,6,20,0.34
2014-7-8,72.0,63.5,58.0,62.0,59.7,56.0,100,88,60,0.00,40.00,16,7,25,0.43
2014-7-9,71.0,62.9,52.0,59.0,53.5,50.0,100,75,50,0.00,40.00,11,5,22,0.09
2014-7-10,80.0,65.7,48.0,62.0,55.8,48.0,100,74,49,0.00,40.00,10,5,18,0.00
2014-7-11,77.0,68.6,60.0,62.0,59.9,57.0,98,76,52,0.00,40.00,15,9,28,0.00
2014-7-12,76.0,68.9,61.0,72.0,66.3,61.0,100,92,79,0.00,40.00,6,3,15,0.20
2014-7-13,74.0,66.8,56.0,64.0,55.5,47.0,100,72,39,0.00,40.00,11,6,19,0.14
2014-7-14,67.0,57.4,49.0,56.0,50.7,47.0,100,80,57,0.00,40.00,16,6,24,0.02
2014-7-15,66.0,58.2,48.0,54.0,50.0,46.0,99,77,48,0.00,40.00,12,7,20,0.03
2014-7-16,73.0,57.8,39.0,54.0,46.5,39.0,100,71,39,0.00,40.00,6,3,13,0.00
2014-7-17,76.0,61.7,43.0,57.0,50.2,43.0,100,71,40,0.00,40.00,7,3,16,0.00
2014-7-18,78.0,63.7,51.0,59.0,55.0,51.0,99,77,45,0.00,40.00,12,4,19,0.00
2014-7-19,79.0,65.1,57.0,62.0,57.8,55.0,93,79,56,0.00,40.00,13,6,21,0.00
2014-7-20,82.0,68.8,60.0,66.0,62.4,59.0,96,81,57,0.00,40.00,12,7,19,0.00
2014-7-21,87.0,73.0,64.0,72.0,66.7,62.0,95,82,60,0.00,40.00,10,6,18,0.00
2014-7-22,85.0,76.8,64.0,75.0,68.1,59.0,91,76,55,0.00,40.00,13,9,23,0.00
2014-7-23,77.0,65.0,49.0,59.0,55.9,49.0,100,75,51,0.00,40.00,8,3,15,0.00
2014-7-24,77.0,66.0,51.0,62.0,54.2,50.0,99,70,40,0.00,40.00,6,2,12,0.00
2014-7-25,68.0,63.8,59.0,63.0,59.9,57.0,98,88,76,0.00,40.00,11,6,25,0.00
2014-7-26,82.0,69.7,62.0,70.0,64.0,61.0,100,82,58,0.00,40.00,9,5,14,0.01
2014-7-27,73.0,64.2,56.0,68.0,59.4,52.0,100,85,58,0.00,40.00,16,7,30,0.06
2014-7-28,72.0,61.4,50.0,56.0,52.6,49.0,99,75,50,0.00,40.00,10,5,20,0.01
2014-7-29,77.0,63.4,51.0,58.0,55.6,50.0,99,78,48,0.00,40.00,9,5,26,0.02
2014-7-30,75.0,63.9,47.0,59.0,53.3,47.0,100,73,40,0.00,40.00,7,4,15,0.01
2014-7-31,79.0,63.0,53.0,65.0,57.1,53.0,100,86,57,0.00,40.00,10,4,21,0.17
2014-8-1,82.0,64.7,53.0,66.0,60.3,53.0,100,87,55,0.00,40.00,6,2,19,0.07
2014-8-2,84.0,68.8,52.0,65.0,57.1,52.0,100,72,39,0.00,40.00,6,3,11,0.01
2014-8-3,85.0,70.3,57.0,67.0,61.2,57.0,100,76,44,0.00,40.00,11,3,26,0.01
2014-8-4,79.0,66.5,60.0,68.0,63.5,60.0,100,90,62,0.00,40.00,10,4,14,0.00
2014-8-5,79.0,68.2,57.0,63.0,58.9,54.0,100,76,44,0.00,40.00,6,2,13,0.00
2014-8-6,83.0,66.7,51.0,63.0,55.3,51.0,100,73,39,0.00,40.00,5,2,10,0.00
2014-8-7,82.0,75.0,63.0,59.0,54.7,50.0,71,50,33,0.00,40.00,7,5,23,0.00
2014-8-8,85.0,67.1,48.0,62.0,53.9,48.0,100,69,33,0.00,40.00,8,3,18,0.00
2014-8-9,80.0,66.4,52.0,62.0,56.5,51.0,100,72,45,0.00,40.00,7,2,13,0.00
2014-8-10,84.0,70.2,50.0,64.0,57.4,50.0,100,68,40,0.00,40.00,6,2,12,0.00
2014-8-11,74.0,63.8,60.0,67.0,61.7,56.0,99,93,79,0.00,40.00,14,5,27,1.00
2014-8-12,74.0,62.3,52.0,57.0,51.0,46.0,93,71,39,0.00,40.00,14,9,25,0.17
2014-8-13,76.0,64.6,52.0,61.0,53.2,47.0,100,70,39,0.00,40.00,10,5,18,0.01
2014-8-14,73.0,58.5,42.0,54.0,46.4,41.0,99,70,38,0.00,40.00,5,2,10,0.00
2014-8-15,80.0,63.3,43.0,65.0,55.0,43.0,100,78,48,0.00,40.00,6,2,14,0.00
2014-8-16,82.0,67.6,58.0,69.0,64.1,58.0,100,88,61,0.00,40.00,9,4,16,0.70
2014-8-17,73.0,64.5,58.0,64.0,59.9,57.0,99,86,67,0.00,40.00,7,4,13,0.28
2014-8-18,76.0,63.5,58.0,71.0,62.3,56.0,100,96,83,0.00,40.00,7,4,25,1.18
2014-8-19,77.0,68.2,62.0,67.0,63.7,62.0,100,87,65,0.00,40.00,10,5,19,0.86
2014-8-20,76.0,64.8,56.0,64.0,60.7,56.0,100,88,62,0.00,40.00,7,2,13,0.12
2014-8-21,76.0,67.1,60.0,70.0,65.8,60.0,100,96,81,0.00,40.00,8,5,14,0.23
2014-8-22,86.0,73.7,67.0,75.0,71.3,67.0,100,93,71,0.00,40.00,7,4,14,0.02
2014-8-23,74.0,71.9,70.0,73.0,71.3,70.0,100,98,93,0.00,40.00,8,4,16,0.00
2014-8-24,81.0,73.1,67.0,72.0,69.0,65.0,97,88,70,0.00,40.00,11,8,20,0.00
2014-8-25,85.0,74.6,67.0,74.0,69.1,63.0,99,84,62,0.00,40.00,11,6,33,0.69
2014-8-26,72.0,62.9,56.0,63.0,55.9,53.0,100,80,54,0.00,40.00,9,4,17,0.04
2014-8-27,74.0,63.1,53.0,61.0,55.9,53.0,100,80,50,0.00,40.00,6,2,13,0.01
2014-8-28,72.0,60.2,49.0,64.0,57.5,49.0,100,92,72,0.00,40.00,7,4,12,0.05
2014-8-29,82.0,67.2,56.0,72.0,64.3,55.0,100,92,69,0.00,40.00,11,6,22,0.88
2014-8-30,75.0,66.4,63.0,68.0,63.9,61.0,100,90,73,0.00,40.00,11,5,19,1.65
2014-8-31,80.0,68.5,60.0,68.0,63.7,59.0,98,86,60,0.00,40.00,10,5,17,0.13
2014-9-1,75.0,67.7,57.0,69.0,62.0,56.0,99,83,56,0.00,40.00,11,6,20,0.15
2014-9-2,77.0,62.1,51.0,61.0,56.9,51.0,100,86,48,0.00,40.00,8,3,17,0.02
2014-9-3,80.0,63.8,52.0,64.0,58.0,52.0,100,84,50,0.00,40.00,10,4,17,0.02
2014-9-4,77.0,67.7,63.0,70.0,66.2,63.0,100,95,70,0.00,40.00,16,7,26,1.61
2014-9-5,73.0,62.9,51.0,73.0,58.3,50.0,100,86,70,0.00,40.00,10,6,20,0.89
2014-9-6,72.0,56.7,43.0,54.0,49.0,43.0,100,78,46,0.00,40.00,11,4,20,0.01
2014-9-7,77.0,60.5,47.0,58.0,51.9,47.0,100,78,41,0.00,40.00,7,2,15,0.01
2014-9-8,72.0,60.9,51.0,58.0,53.9,51.0,100,81,48,0.00,40.00,14,5,24,0.00
2014-9-9,81.0,66.9,55.0,64.0,60.0,55.0,100,81,52,0.00,40.00,11,4,17,0.18
2014-9-10,66.0,56.5,44.0,66.0,54.0,39.0,100,92,79,0.00,40.00,17,9,28,0.79
2014-9-11,53.0,46.8,42.0,40.0,38.5,37.0,88,73,58,0.00,40.00,11,7,22,0.02
2014-9-12,49.0,41.8,35.0,43.0,39.7,34.0,100,93,65,0.00,40.00,5,2,8,0.20
2014-9-13,60.0,45.4,33.0,42.0,37.2,33.0,100,76,38,0.00,40.00,6,3,14,0.07
2014-9-14,65.0,52.8,41.0,50.0,43.6,39.0,95,73,52,0.00,40.00,15,7,26,0.00
2014-9-15,63.0,51.4,38.0,49.0,44.5,37.0,100,80,49,0.00,40.00,9,3,16,0.00
2014-9-16,66.0,48.5,32.0,46.0,40.0,32.0,100,77,42,0.00,40.00,8,3,16,0.00
2014-9-17,71.0,53.5,37.0,54.0,46.7,37.0,100,82,48,0.00,40.00,7,3,15,0.00
2014-9-18,57.0,49.4,44.0,53.0,45.8,42.0,98,88,73,0.00,40.00,8,5,13,0.00
2014-9-19,72.0,59.1,47.0,56.0,51.9,47.0,100,80,53,0.00,40.00,21,10,32,0.00
2014-9-20,76.0,65.3,54.0,64.0,58.7,53.0,98,80,55,0.00,40.00,11,7,26,0.12
2014-9-21,62.0,54.0,38.0,54.0,46.9,37.0,99,79,52,0.00,40.00,13,8,28,0.18
2014-9-22,68.0,50.4,34.0,51.0,44.0,34.0,100,82,51,0.00,40.00,8,3,16,0.01
2014-9-23,74.0,56.2,39.0,56.0,48.5,39.0,100,80,44,0.00,40.00,7,2,15,0.00
2014-9-24,69.0,57.0,47.0,56.0,51.7,47.0,100,84,56,0.00,40.00,9,4,14,0.09
2014-9-25,77.0,61.5,52.0,58.0,54.9,52.0,100,82,46,0.00,40.00,9,3,13,0.10
2014-9-26,78.0,61.8,45.0,58.0,52.7,45.0,100,77,44,0.00,40.00,8,3,14,0.00
2014-9-27,82.0,64.3,53.0,60.0,55.3,51.0,99,75,45,0.00,40.00,8,3,15,0.00
2014-9-28,83.0,65.2,51.0,62.0,57.5,51.0,100,81,43,0.00,40.00,7,2,12,0.00
2014-9-29,57.0,52.7,43.0,57.0,50.0,38.0,100,91,69,0.00,40.00,12,5,18,0.03
2014-9-30,57.0,45.7,40.0,44.0,40.6,37.0,93,83,60,0.00,40.00,10,5,18,0.02
2014-10-1,60.0,52.6,45.0,55.0,49.2,43.0,100,89,70,0.00,40.00,10,6,17,0.03
2014-10-2,68.0,58.7,52.0,61.0,56.5,52.0,100,93,73,0.00,40.00,7,3,15,1.13
2014-10-3,58.0,47.9,38.0,58.0,45.2,34.0,100,91,76,0.00,40.00,16,11,32,0.93
2014-10-4,46.0,39.8,33.0,39.0,34.9,31.0,99,84,66,0.00,40.00,14,8,22,0.12
2014-10-5,50.0,41.2,31.0,35.0,31.7,29.0,94,70,52,0.00,40.00,11,6,20,0.02
2014-10-6,55.0,43.3,31.0,38.0,32.0,26.0,100,69,33,0.00,40.00,11,6,23,0.00
2014-10-7,62.0,51.0,39.0,42.0,37.1,31.0,96,61,39,0.00,40.00,14,7,25,0.00
2014-10-8,55.0,43.2,32.0,34.0,31.1,29.0,95,65,38,0.00,40.00,16,8,33,0.00
2014-10-9,56.0,40.6,27.0,35.0,31.5,26.0,98,73,44,0.00,40.00,9,4,18,0.00
2014-10-10,58.0,45.3,27.0,39.0,32.7,27.0,100,66,35,0.00,40.00,8,4,16,0.00
2014-10-11,57.0,40.9,26.0,35.0,30.3,26.0,99,69,37,0.00,40.00,5,2,10,0.00
2014-10-12,60.0,46.7,33.0,48.0,36.0,30.0,99,70,39,0.00,40.00,15,6,22,0.07
2014-10-13,53.0,50.5,48.0,53.0,50.3,48.0,100,99,95,0.00,40.00,9,4,18,0.69
2014-10-14,53.0,50.4,48.0,51.0,47.7,44.0,100,91,75,0.00,40.00,16,12,39,1.99
2014-10-15,58.0,51.7,48.0,49.0,44.8,41.0,95,77,68,0.00,40.00,14,7,23,0.01
2014-10-16,67.0,51.6,35.0,50.0,45.0,35.0,100,81,44,0.00,40.00,7,3,13,0.01
2014-10-17,55.0,49.1,45.0,48.0,44.2,38.0,97,84,71,0.00,40.00,14,8,26,0.00
2014-10-18,52.0,42.4,30.0,41.0,33.6,29.0,97,72,41,0.00,40.00,11,6,20,0.02
2014-10-19,56.0,42.2,29.0,46.0,37.5,29.0,100,85,58,0.00,40.00,14,5,25,0.01
2014-10-20,54.0,46.9,37.0,46.0,41.3,37.0,100,82,64,0.00,40.00,9,5,19,0.01
2014-10-21,54.0,44.3,35.0,41.0,36.4,33.0,94,75,50,0.00,40.00,7,4,17,0.00
2014-10-22,58.0,42.8,31.0,38.0,33.7,31.0,99,74,38,0.00,40.00,11,6,18,0.01
2014-10-23,46.0,43.8,41.0,46.0,42.5,36.0,100,95,76,0.00,40.00,6,5,12,0.24
2014-10-24,59.0,50.4,44.0,56.0,48.4,44.0,100,93,75,0.00,40.00,8,4,15,0.01
2014-10-25,62.0,54.2,45.0,56.0,38.3,26.0,100,61,26,0.00,40.00,16,9,27,0.01
2014-10-26,64.0,48.2,34.0,32.0,27.8,25.0,76,49,24,0.00,40.00,7,4,12,0.00
2014-10-27,67.0,54.4,47.0,53.0,43.0,28.0,100,67,38,0.00,40.00,9,5,18,0.14
2014-10-28,53.0,45.9,40.0,53.0,40.2,33.0,100,81,60,0.00,40.00,13,9,25,0.09
2014-10-29,47.0,39.3,29.0,35.0,32.7,29.0,100,78,61,0.00,40.00,15,8,24,0.05
2014-10-30,47.0,37.4,29.0,38.0,32.9,29.0,100,85,65,0.00,40.00,17,4,27,0.01
2014-10-31,38.0,32.5,27.0,31.0,22.3,18.0,98,67,46,0.00,40.00,18,13,32,0.01
2014-11-1,45.0,29.5,17.0,26.0,19.7,16.0,97,70,36,0.00,40.00,7,3,11,0.00
2014-11-2,53.0,39.0,27.0,28.0,22.7,20.0,83,56,28,0.00,40.00,16,8,24,0.00
2014-11-3,51.0,43.4,36.0,46.0,32.9,21.0,97,68,49,0.00,40.00,10,6,18,0.04
2014-11-4,51.0,45.0,41.0,51.0,37.3,28.0,100,76,51,0.00,40.00,16,9,28,0.09
2014-11-5,41.0,36.8,28.0,38.0,32.1,25.0,100,84,60,0.00,40.00,10,5,18,0.25
2014-11-6,37.0,34.9,33.0,37.0,30.8,26.0,100,86,68,0.00,40.00,13,8,22,0.26
2014-11-7,40.0,35.1,28.0,34.0,29.2,25.0,99,81,58,0.00,40.00,14,7,22,0.02
2014-11-8,38.0,35.2,31.0,36.0,26.4,20.0,98,70,50,0.00,40.00,18,10,31,0.01
2014-11-9,37.0,32.5,29.0,34.0,28.3,20.0,100,85,64,0.00,40.00,10,4,17,0.11
2014-11-10,33.0,31.3,29.0,33.0,28.6,20.0,100,90,62,0.00,40.00,13,8,25,0.12
2014-11-11,32.0,27.8,18.0,32.0,26.1,15.0,100,93,81,0.00,40.00,7,4,11,0.06
2014-11-12,21.0,18.1,15.0,18.0,13.8,13.0,92,77,78,0.00,40.00,7,4,12,0.14
2014-11-13,24.0,19.9,14.0,18.0,16.3,13.0,95,86,75,0.00,40.00,10,6,19,0.14
2014-11-17,12.0,9.2,6.0,6.0,3.3,1.0,88,76,65,0.00,40.00,13,8,24,0.00
2014-11-18,12.0,10.1,7.0,5.0,2.3,0.0,77,70,60,0.00,40.00,13,8,23,0.00
2014-11-19,21.0,16.8,12.0,15.0,11.6,5.0,91,80,67,0.00,40.00,15,8,27,0.00
2014-11-20,16.0,11.0,0.0,9.0,1.6,-4.0,83,66,52,0.00,40.00,13,8,23,0.00
2014-11-21,28.0,13.4,-4.0,16.0,3.0,-8.0,84,65,43,0.00,40.00,12,6,20,0.00
2014-11-22,38.0,33.2,28.0,38.0,31.5,16.0,100,92,61,0.00,40.00,10,6,20,0.00
2014-11-23,48.0,45.2,38.0,48.0,45.2,38.0,100,100,100,0.00,40.00,9,6,17,0.08